Location: Complexul Astronomic Baia Mare
(47.6577°N, 23.5639°E)
Time: 06:46:26
(UTC+03:00)

ISS - Pass Details

Date: 24 May 2017
Orbit: 402 x 408 km, 51.6° (Epoch: 29 May)

Event Time Altitude Azimuth Distance (km) Brightness Sun altitude
Rises 01:21:28 0° 274° (W) 2,331 0.1 -21.6°
Reaches altitude 10° 01:23:38 10° 282° (WNW) 1,470 -0.9 -21.6°
Maximum altitude 01:26:46 41° 354° (N) 608 -2.5 -21.6°
Drops below altitude 10° 01:29:55 10° 66° (ENE) 1,467 -0.7 -21.6°
Sets 01:32:04 0° 74° (ENE) 2,327 0.3 -21.6°
